Simultaneous Nadir Overpasses (SNOs) Predictions

Prediction of SNOs between LANDSAT-8 and NPP Satellite Orbit:

Table of predicted SNOs for the next 14.0 days since TLE Epoch: 10/24/2020
Index Date (LANDSAT-8) Time (LANDSAT-8) Lat,Lon (LANDSAT-8) SZA (LANDSAT-8 ) Date (NPP) Time (NPP) Lat,Lon (NPP) SZA (NPP ) Distance(km) Time Diff (sec)
1 10/26/2020 14:42:09 -70.46, 136.49 96.92 10/26/2020 14:40:58 -70.52, 135.50 96.86 37.24 71
2 10/26/2020 15:31:42 70.03, -56.48 82.67 10/26/2020 15:31:35 70.03, -56.43 82.67 1.84 7
3 10/26/2020 16:21:12 -69.92, 110.99 97.44 10/26/2020 16:22:17 -69.95, 111.01 97.41 3.40 65
4 10/29/2020 06:58:44 -70.12,-108.12 96.36 10/29/2020 06:57:44 -70.11,-108.08 96.38 2.16 60
5 10/29/2020 07:48:11 70.02, 59.38 83.55 10/29/2020 07:48:29 70.04, 59.32 83.58 3.43 18
6 10/29/2020 08:37:51 -69.36,-133.89 97.11 10/29/2020 08:39:00 -69.37,-132.38 97.08 59.37 69
7 10/31/2020 23:15:12 -70.11, 7.74 95.51 10/31/2020 23:14:37 -70.12, 7.67 95.50 3.16 35
8 11/01/2020 00:04:40 69.95, 175.16 84.35 11/01/2020 00:05:20 69.95, 175.23 84.35 2.62 40
9 11/03/2020 14:42:06 70.47, -43.48 85.69 11/03/2020 14:40:55 70.54, -44.54 85.76 40.25 71
10 11/03/2020 15:31:42 -70.03, 123.52 94.74 11/03/2020 15:31:29 -70.03, 123.58 94.74 2.06 13
11 11/03/2020 16:21:09 69.92, -68.99 85.16 11/03/2020 16:22:13 69.92, -68.95 85.16 1.77 64
12 11/06/2020 06:58:41 70.11, 71.89 86.15 11/06/2020 06:57:41 70.14, 71.86 86.17 3.24 60
13 11/06/2020 07:48:11 -70.01,-120.63 93.95 11/06/2020 07:48:22 -70.00,-120.60 93.97 1.79 11
14 11/06/2020 08:37:48 69.35, 46.11 85.39 11/06/2020 08:38:56 69.35, 47.65 85.41 60.34 68
